Blue Canyon, CA

12:37 PM PST on January 23, 2018 (GMT -0800)
Blue Canyon-Nyack

Weather History for KBLU - November, 2013

Change the Weather History Date:

Wednesday, November 27, 2013

  Actual Average Record
Temperature  
Mean Temperature 49 °F -  
Max Temperature 52 °F 47 °F 66 °F (1955)
Min Temperature 46 °F 34 °F 22 °F (1948)
Degree Days  
Heating Degree Days 16    
Moisture  
Dew Point 25 °F    
Average Humidity 40    
Maximum Humidity 52    
Minimum Humidity 34    
Precipitation  
Precipitation 0.00 in - - ()
Sea Level Pressure  
Sea Level Pressure 29.93 in    
Wind  
Wind Speed 5 mph (ESE)    
Max Wind Speed 10 mph    
Max Gust Speed 17 mph    
Visibility 10 miles    
Events      
Averages and records for this station are not official NWS values.
T = Trace of Precipitation, MM = Missing Value Source: NWS Daily Summary

Daily Weather History Graph

Daily Weather History Graph

Search for Another Location

Airport or City:

Trip Planner

Search our weather history database for the weather conditions in past years. The results will help you decide how hot, cold, wet, or windy it might be!

Date:

Astronomy

Nov. 27, 2013 Rise Set
Actual Time 6:59 AM PST 4:41 PM PST
Civil Twilight 6:30 AM PST 5:10 PM PST
Nautical Twilight 5:57 AM PST 5:43 PM PST
Astronomical Twilight 5:25 AM PST 6:15 PM PST
Moon 1:08 AM PST (11/27) 1:19 PM PST (11/27)
Length of Visible Light 10h 40m
Length of Day
9h 41m
Waning Crescent, 30% of the Moon is Illuminated
Nov 27
Waning Crescent
Dec 2
New
Dec 9
First Quarter
Dec 17
Full
Dec 25
Last Quarter

Hourly Weather History & Observations

Time (PST) Temp. Windchill Dew Point Humidity Pressure Visibility Wind Dir Wind Speed Gust Speed Precip Events Conditions
12:52 AM 46.9 °F - 19.9 °F 34% 30.01 in 10.0 mi SE 4.6 mph - N/A   Clear
1:52 AM 46.9 °F - 21.0 °F 36% 30.01 in 10.0 mi SE 5.8 mph - N/A   Clear
2:52 AM 46.0 °F 44.8 °F 23.0 °F 40% 30.01 in 10.0 mi ESE 3.5 mph - N/A   Clear
3:52 AM 46.9 °F - 21.9 °F 37% 29.99 in 10.0 mi Variable 5.8 mph - N/A   Clear
4:52 AM 46.9 °F - 21.0 °F 36% 29.99 in 10.0 mi Variable 4.6 mph - N/A   Clear
5:52 AM 46.0 °F 44.8 °F 21.0 °F 37% 29.99 in 10.0 mi SE 3.5 mph - N/A   Clear
6:52 AM 46.0 °F 44.8 °F 21.9 °F 39% 29.98 in 10.0 mi ESE 3.5 mph - N/A   Clear
7:52 AM 46.0 °F 44.8 °F 21.9 °F 39% 29.97 in 10.0 mi ENE 3.5 mph - N/A   Clear
8:52 AM 48.0 °F - 21.9 °F 36% 29.97 in 10.0 mi SE 6.9 mph - N/A   Clear
9:52 AM 50.0 °F - 24.1 °F 36% 29.95 in 10.0 mi SE 4.6 mph - N/A   Clear
10:52 AM 50.0 °F - 26.1 °F 39% 29.94 in 10.0 mi Variable 5.8 mph - N/A   Clear
11:52 AM 50.0 °F - 24.1 °F 36% 29.92 in 10.0 mi SSE 8.1 mph - N/A   Partly Cloudy
12:52 PM 51.1 °F - 24.1 °F 35% 29.91 in 10.0 mi South 8.1 mph 17.3 mph N/A   Clear
1:52 PM 52.0 °F - 25.0 °F 35% 29.88 in 10.0 mi SSE 10.4 mph - N/A   Partly Cloudy
2:52 PM 51.1 °F - 28.0 °F 41% 29.88 in 10.0 mi Variable 3.5 mph - N/A   Clear
3:52 PM 50.0 °F - 28.9 °F 44% 29.87 in 10.0 mi West 3.5 mph - N/A   Clear
4:52 PM 46.9 °F - 30.0 °F 52% 29.89 in 10.0 mi Calm Calm - N/A   Clear
5:52 PM 46.9 °F - 28.9 °F 50% 29.90 in 10.0 mi Calm Calm - N/A   Clear
6:52 PM 46.9 °F - 28.0 °F 48% 29.89 in 10.0 mi NE 5.8 mph - N/A   Clear
7:52 PM 46.9 °F - 28.0 °F 48% 29.89 in 10.0 mi NE 5.8 mph - N/A   Clear
8:52 PM 46.9 °F - 28.0 °F 48% 29.88 in 10.0 mi NE 5.8 mph - N/A   Clear
9:52 PM 46.9 °F - 27.0 °F 46% 29.88 in 10.0 mi NE 4.6 mph - N/A   Clear
10:52 PM 48.0 °F - 25.0 °F 41% 29.88 in 10.0 mi NE 5.8 mph - N/A   Clear
11:52 PM 48.0 °F - 24.1 °F 39% 29.88 in 10.0 mi Calm Calm - N/A   Clear